Location: Observatory
(52.1446°N, 0.4624°W)
Time: 22:36:55
(UTC+00:00)

ISS - Pass Details

Date: 09 January 2018
Orbit: 402 x 407 km, 51.6° (Epoch: 22 January)

Event Time Altitude Azimuth Distance (km) Brightness Sun altitude
Exits shadow 04:48:36 15° 91° (E) 1,189 -0.7 -29.5°
Drops below altitude 10° 04:49:18 10° 91° (E) 1,469 -0.1 -29.4°
Sets 04:51:23 0° 91° (E) 2,331 1.3 -29.1°
